Flag for Micronesia Weather past 2 weeks in Tofol, Kosrae, Micronesia

Now
84 °F

Mostly cloudy.


Feels Like: 94 °F
Forecast: 81 / 86 °F
Wind: 7 mph from Northeast

Location: Pohnpei

Current Time: Jan 29, 2015 at 4:38:47 PM

Latest Report: Jan 29, 2015 at 3:52 PM


Visibility: 15 mi

Pressure: 29.71 "Hg

Humidity: 81%

Dew point: 77 °F

Location of TofolLocation

Historic Weather in Tofol — Graph

°F

Tofol temperature yesterday

Maximum temperature yesterday: 85 °F (at 11:54 AM)
Minimum temperature yesterday: 80 °F (at 6:54 AM)
Average temperature yesterday: 82 °F

Past Weeks' High & Low Weather Summary

 TemperatureHumidityPressure
High89 °F (Jan 15, 4:55 PM)99% (Jan 22, 2:50 AM)29.97 "Hg (Jan 22, 2:50 AM)
Low72 °F (Jan 25, 4:51 AM)57% (Jan 15, 4:55 PM)29.72 "Hg (Jan 29, 2:52 PM)
Average82 °F79%29.87 "Hg
* Reported Jan 14 2:53 PM — Jan 29 2:52 PM, Tofol, Weather by CustomWeather, © 2014

Note: Actual official high and low records may vary slightly from our data, if they occured in-between our weather recording intervals... More about our weather records

Advertising

Tofol weather history for previous 24 hours

 ConditionsComfort  
Time TempWeatherWind HumidityBarometerVisibility
2:52 PM
Jan 29
82 °FMostly cloudy.7 mph79%29.72 "Hg15 mi
1:52 PM84 °FMostly cloudy.5 mph79%29.73 "Hg15 mi
12:52 PM84 °FCloudy.7 mph77%29.76 "Hg15 mi
11:54 AM82 °FMostly cloudy.7 mph78%29.78 "Hg15 mi
10:55 AM82 °FCloudy.9 mph86%29.80 "Hg15 mi
9:53 AM83 °FMore clouds than sun.7 mph77%29.82 "Hg15 mi
8:53 AM82 °FCloudy.6 mph75%29.82 "Hg15 mi
7:50 AM81 °FBroken clouds.5 mph86%29.80 "Hg15 mi
6:50 AM81 °FMore clouds than sun.5 mph80%29.78 "Hg15 mi
5:50 AM81 °FPartly cloudy.9 mph79%29.76 "Hg15 mi
4:50 AM81 °FPartly cloudy.9 mph80%29.75 "Hg15 mi
3:50 AM81 °FMostly cloudy.12 mph79%29.74 "Hg15 mi
2:50 AM81 °FMostly cloudy.6 mph76%29.75 "Hg15 mi
1:50 AM81 °FPartly cloudy.6 mph76%29.76 "Hg15 mi
12:50 AM81 °FPartly cloudy.6 mph76%29.78 "Hg15 mi
11:54 PM
Jan 28
81 °FMostly cloudy.8 mph72%29.78 "Hg15 mi
10:52 PM82 °FMostly cloudy.9 mph73%29.79 "Hg15 mi
9:51 PM82 °FOvercast.7 mph74%29.80 "Hg15 mi
8:51 PM81 °FOvercast.6 mph75%29.80 "Hg15 mi
7:52 PM81 °FOvercast.8 mph72%29.77 "Hg15 mi
6:52 PM82 °FPassing clouds.6 mph72%29.75 "Hg15 mi
5:52 PM82 °FOvercast.9 mph72%29.75 "Hg15 mi
4:50 PM83 °FOvercast.7 mph69%29.74 "Hg15 mi
Weather by CustomWeather, © 2014

See weather overviewHow to use our weather pages